Time,TemperatureF,DewpointF,PressureIn,WindDirection,WindDirectionDegrees,WindSpeedMPH,WindSpeedGustMPH,Humidity,HourlyPrecipIn,Conditions,Clouds,dailyrainin,SolarRadiationWatts/m^2,SoftwareType,DateUTC
2013-01-07 00:12:00,20.0,-6.0,-100.00,South,174,5.0,10.0,30,0.00,,,0.00,0.000000,,2013-01-07 07:12:00,
2013-01-07 00:22:00,20.0,-6.0,-100.00,South,174,5.0,10.0,30,0.00,,,0.00,0.000000,,2013-01-07 07:22:00,
2013-01-07 00:33:00,20.0,-6.0,-100.00,South,174,5.0,10.0,30,0.00,,,0.00,0.000000,,2013-01-07 07:33:00,
2013-01-07 00:42:00,20.0,-6.0,-100.00,South,174,5.0,10.0,30,0.00,,,0.00,0.000000,,2013-01-07 07:42:00,
2013-01-07 00:52:00,20.0,-6.0,-100.00,South,174,5.0,10.0,30,0.00,,,0.00,0.000000,,2013-01-07 07:52:00,
2013-01-07 01:12:00,20.0,-8.0,-100.00,South,176,7.0,9.0,28,0.00,,,0.00,0.000000,,2013-01-07 08:12:00,
2013-01-07 01:22:00,20.0,-8.0,-100.00,South,176,7.0,9.0,28,0.00,,,0.00,0.000000,,2013-01-07 08:22:00,
2013-01-07 01:32:00,20.0,-8.0,-100.00,South,176,7.0,9.0,28,0.00,,,0.00,0.000000,,2013-01-07 08:32:00,
2013-01-07 01:42:00,20.0,-8.0,-100.00,South,176,7.0,9.0,28,0.00,,,0.00,0.000000,,2013-01-07 08:42:00,
2013-01-07 01:52:00,20.0,-8.0,-100.00,South,176,7.0,9.0,28,0.00,,,0.00,0.000000,,2013-01-07 08:52:00,
2013-01-07 02:22:00,18.0,-8.0,-100.00,South,177,6.0,9.0,30,0.00,,,0.00,0.000000,,2013-01-07 09:22:00,
2013-01-07 02:32:00,18.0,-8.0,-100.00,South,177,6.0,9.0,30,0.00,,,0.00,0.000000,,2013-01-07 09:32:00,
2013-01-07 02:42:00,18.0,-8.0,-100.00,South,177,6.0,9.0,30,0.00,,,0.00,0.000000,,2013-01-07 09:42:00,
2013-01-07 02:52:00,18.0,-8.0,-100.00,South,177,6.0,9.0,30,0.00,,,0.00,0.000000,,2013-01-07 09:52:00,
2013-01-07 03:12:00,18.0,-9.0,-100.00,SSE,167,2.0,8.0,29,0.00,,,0.00,0.000000,,2013-01-07 10:12:00,
2013-01-07 03:22:00,18.0,-9.0,-100.00,SSE,167,2.0,8.0,29,0.00,,,0.00,0.000000,,2013-01-07 10:22:00,
2013-01-07 03:32:00,18.0,-9.0,-100.00,SSE,167,2.0,8.0,29,0.00,,,0.00,0.000000,,2013-01-07 10:32:00,
2013-01-07 03:42:00,18.0,-9.0,-100.00,SSE,167,2.0,8.0,29,0.00,,,0.00,0.000000,,2013-01-07 10:42:00,
2013-01-07 03:52:00,18.0,-9.0,-100.00,SSE,167,2.0,8.0,29,0.00,,,0.00,0.000000,,2013-01-07 10:52:00,
2013-01-07 04:12:00,23.0,-12.0,-100.00,WNW,284,2.0,5.0,20,0.00,,,0.00,0.000000,,2013-01-07 11:12:00,
2013-01-07 04:22:00,23.0,-12.0,-100.00,WNW,284,2.0,5.0,20,0.00,,,0.00,0.000000,,2013-01-07 11:22:00,
2013-01-07 04:33:00,23.0,-12.0,-100.00,WNW,284,2.0,5.0,20,0.00,,,0.00,0.000000,,2013-01-07 11:33:00,
2013-01-07 04:43:00,23.0,-12.0,-100.00,WNW,284,2.0,5.0,20,0.00,,,0.00,0.000000,,2013-01-07 11:43:00,
2013-01-07 04:52:00,23.0,-12.0,-100.00,WNW,284,2.0,5.0,20,0.00,,,0.00,0.000000,,2013-01-07 11:52:00,
2013-01-07 05:22:00,22.0,-12.0,-100.00,SSE,157,2.0,4.0,21,0.00,,,0.00,0.000000,,2013-01-07 12:22:00,
2013-01-07 05:33:00,22.0,-12.0,-100.00,SSE,157,2.0,4.0,21,0.00,,,0.00,0.000000,,2013-01-07 12:33:00,
2013-01-07 05:43:00,22.0,-12.0,-100.00,SSE,157,2.0,4.0,21,0.00,,,0.00,0.000000,,2013-01-07 12:43:00,
2013-01-07 05:52:00,22.0,-12.0,-100.00,SSE,157,2.0,4.0,21,0.00,,,0.00,0.000000,,2013-01-07 12:52:00,
2013-01-07 06:23:00,16.0,-9.0,-100.00,South,183,4.0,6.0,31,0.00,,,0.00,0.000000,,2013-01-07 13:23:00,
2013-01-07 06:33:00,16.0,-9.0,-100.00,South,183,4.0,6.0,31,0.00,,,0.00,0.000000,,2013-01-07 13:33:00,
2013-01-07 06:42:00,16.0,-9.0,-100.00,South,183,4.0,6.0,31,0.00,,,0.00,0.000000,,2013-01-07 13:42:00,
2013-01-07 06:52:00,16.0,-9.0,-100.00,South,183,4.0,6.0,31,0.00,,,0.00,0.000000,,2013-01-07 13:52:00,
2013-01-07 07:22:00,21.0,-11.0,-100.00,South,187,3.0,6.0,23,0.00,,,0.00,0.000000,,2013-01-07 14:22:00,
2013-01-07 07:33:00,21.0,-11.0,-100.00,South,187,3.0,6.0,23,0.00,,,0.00,0.000000,,2013-01-07 14:33:00,
2013-01-07 07:42:00,21.0,-11.0,-100.00,South,187,3.0,6.0,23,0.00,,,0.00,0.000000,,2013-01-07 14:42:00,
2013-01-07 07:53:00,21.0,-11.0,-100.00,South,187,3.0,6.0,23,0.00,,,0.00,0.000000,,2013-01-07 14:53:00,
2013-01-07 08:12:00,20.0,-15.0,-100.00,South,190,3.0,5.0,20,0.00,,,0.00,4.000000,,2013-01-07 15:12:00,
2013-01-07 08:22:00,20.0,-15.0,-100.00,South,190,3.0,5.0,20,0.00,,,0.00,4.000000,,2013-01-07 15:22:00,
2013-01-07 08:33:00,20.0,-15.0,-100.00,South,190,3.0,5.0,20,0.00,,,0.00,4.000000,,2013-01-07 15:33:00,
2013-01-07 08:43:00,20.0,-15.0,-100.00,South,190,3.0,5.0,20,0.00,,,0.00,4.000000,,2013-01-07 15:43:00,
2013-01-07 08:53:00,20.0,-15.0,-100.00,South,190,3.0,5.0,20,0.00,,,0.00,4.000000,,2013-01-07 15:53:00,
2013-01-07 09:22:00,30.0,-12.0,-100.00,SE,138,1.0,4.0,15,0.00,,,0.00,96.000000,,2013-01-07 16:22:00,
2013-01-07 09:33:00,30.0,-12.0,-100.00,SE,138,1.0,4.0,15,0.00,,,0.00,96.000000,,2013-01-07 16:33:00,
2013-01-07 09:43:00,30.0,-12.0,-100.00,SE,138,1.0,4.0,15,0.00,,,0.00,96.000000,,2013-01-07 16:43:00,
2013-01-07 09:53:00,30.0,-12.0,-100.00,SE,138,1.0,4.0,15,0.00,,,0.00,96.000000,,2013-01-07 16:53:00,
2013-01-07 10:12:00,36.0,-10.0,-100.00,SW,214,2.0,5.0,13,0.00,,,0.00,219.000000,,2013-01-07 17:12:00,
2013-01-07 10:23:00,36.0,-10.0,-100.00,SW,214,2.0,5.0,13,0.00,,,0.00,219.000000,,2013-01-07 17:23:00,
2013-01-07 10:33:00,36.0,-10.0,-100.00,SW,214,2.0,5.0,13,0.00,,,0.00,219.000000,,2013-01-07 17:33:00,
2013-01-07 10:42:00,36.0,-10.0,-100.00,SW,214,2.0,5.0,13,0.00,,,0.00,219.000000,,2013-01-07 17:42:00,
2013-01-07 10:53:00,36.0,-10.0,-100.00,SW,214,2.0,5.0,13,0.00,,,0.00,219.000000,,2013-01-07 17:53:00,
2013-01-07 11:12:00,29.0,-4.0,-100.00,South,190,6.0,9.0,23,0.00,,,0.00,403.000000,,2013-01-07 18:12:00,
2013-01-07 11:23:00,29.0,-4.0,-100.00,South,190,6.0,9.0,23,0.00,,,0.00,403.000000,,2013-01-07 18:23:00,
2013-01-07 11:33:00,29.0,-4.0,-100.00,South,190,6.0,9.0,23,0.00,,,0.00,403.000000,,2013-01-07 18:33:00,
2013-01-07 11:42:00,29.0,-4.0,-100.00,South,190,6.0,9.0,23,0.00,,,0.00,403.000000,,2013-01-07 18:42:00,
2013-01-07 11:52:00,29.0,-4.0,-100.00,South,190,6.0,9.0,23,0.00,,,0.00,403.000000,,2013-01-07 18:52:00,
2013-01-07 12:12:00,30.0,-3.0,-100.00,South,190,6.0,10.0,23,0.00,,,0.00,416.000000,,2013-01-07 19:12:00,
2013-01-07 12:23:00,30.0,-3.0,-100.00,South,190,6.0,10.0,23,0.00,,,0.00,416.000000,,2013-01-07 19:23:00,
2013-01-07 12:33:00,30.0,-3.0,-100.00,South,190,6.0,10.0,23,0.00,,,0.00,416.000000,,2013-01-07 19:33:00,
2013-01-07 12:42:00,30.0,-3.0,-100.00,South,190,6.0,10.0,23,0.00,,,0.00,416.000000,,2013-01-07 19:42:00,
2013-01-07 12:52:00,30.0,-3.0,-100.00,South,190,6.0,10.0,23,0.00,,,0.00,416.000000,,2013-01-07 19:52:00,
2013-01-07 13:23:00,33.0,-2.0,-100.00,South,188,7.0,11.0,22,0.00,,,0.00,528.000000,,2013-01-07 20:23:00,
2013-01-07 13:33:00,33.0,-2.0,-100.00,South,188,7.0,11.0,22,0.00,,,0.00,528.000000,,2013-01-07 20:33:00,
2013-01-07 13:42:00,33.0,-2.0,-100.00,South,188,7.0,11.0,22,0.00,,,0.00,528.000000,,2013-01-07 20:42:00,
2013-01-07 13:52:00,33.0,-2.0,-100.00,South,188,7.0,11.0,22,0.00,,,0.00,528.000000,,2013-01-07 20:52:00,
2013-01-07 14:12:00,31.0,-3.0,-100.00,South,185,7.0,10.0,22,0.00,,,0.00,431.000000,,2013-01-07 21:12:00,
2013-01-07 14:23:00,31.0,-3.0,-100.00,South,185,7.0,10.0,22,0.00,,,0.00,431.000000,,2013-01-07 21:23:00,
2013-01-07 14:33:00,31.0,-3.0,-100.00,South,185,7.0,10.0,22,0.00,,,0.00,431.000000,,2013-01-07 21:33:00,
2013-01-07 14:43:00,31.0,-3.0,-100.00,South,185,7.0,10.0,22,0.00,,,0.00,431.000000,,2013-01-07 21:43:00,
2013-01-07 14:52:00,31.0,-3.0,-100.00,South,185,7.0,10.0,22,0.00,,,0.00,431.000000,,2013-01-07 21:52:00,
2013-01-07 15:12:00,32.0,-2.0,-100.00,South,189,4.0,8.0,22,0.00,,,0.00,290.000000,,2013-01-07 22:12:00,
2013-01-07 15:22:00,32.0,-2.0,-100.00,South,189,4.0,8.0,22,0.00,,,0.00,290.000000,,2013-01-07 22:22:00,
2013-01-07 15:33:00,32.0,-2.0,-100.00,South,189,4.0,8.0,22,0.00,,,0.00,290.000000,,2013-01-07 22:33:00,
2013-01-07 15:42:00,32.0,-2.0,-100.00,South,189,4.0,8.0,22,0.00,,,0.00,290.000000,,2013-01-07 22:42:00,
2013-01-07 15:52:00,32.0,-2.0,-100.00,South,189,4.0,8.0,22,0.00,,,0.00,290.000000,,2013-01-07 22:52:00,
2013-01-07 16:22:00,34.0,-4.0,-100.00,SSW,195,3.0,6.0,19,0.00,,,0.00,176.000000,,2013-01-07 23:22:00,
2013-01-07 16:33:00,34.0,-4.0,-100.00,SSW,195,3.0,6.0,19,0.00,,,0.00,176.000000,,2013-01-07 23:33:00,
2013-01-07 16:43:00,34.0,-4.0,-100.00,SSW,195,3.0,6.0,19,0.00,,,0.00,176.000000,,2013-01-07 23:43:00,
2013-01-07 16:53:00,34.0,-4.0,-100.00,SSW,195,3.0,6.0,19,0.00,,,0.00,176.000000,,2013-01-07 23:53:00,
2013-01-07 17:22:00,30.0,-9.0,-100.00,SSE,160,2.0,5.0,17,0.00,,,0.00,65.000000,,2013-01-08 00:22:00,
2013-01-07 17:33:00,30.0,-9.0,-100.00,SSE,160,2.0,5.0,17,0.00,,,0.00,65.000000,,2013-01-08 00:33:00,
2013-01-07 17:42:00,30.0,-9.0,-100.00,SSE,160,2.0,5.0,17,0.00,,,0.00,65.000000,,2013-01-08 00:42:00,
2013-01-07 17:52:00,30.0,-9.0,-100.00,SSE,160,2.0,5.0,17,0.00,,,0.00,65.000000,,2013-01-08 00:52:00,
2013-01-07 18:12:00,26.0,-17.0,-100.00,NE,53,2.0,5.0,14,0.00,,,0.00,1.000000,,2013-01-08 01:12:00,
2013-01-07 18:22:00,26.0,-17.0,-100.00,NE,53,2.0,5.0,14,0.00,,,0.00,1.000000,,2013-01-08 01:22:00,
2013-01-07 18:33:00,26.0,-17.0,-100.00,NE,53,2.0,5.0,14,0.00,,,0.00,1.000000,,2013-01-08 01:33:00,
2013-01-07 18:42:00,26.0,-17.0,-100.00,NE,53,2.0,5.0,14,0.00,,,0.00,1.000000,,2013-01-08 01:42:00,
2013-01-07 18:52:00,26.0,-17.0,-100.00,NE,53,2.0,5.0,14,0.00,,,0.00,1.000000,,2013-01-08 01:52:00,
2013-01-07 19:12:00,26.0,-21.0,-100.00,WNW,299,1.0,8.0,11,0.00,,,0.00,0.000000,,2013-01-08 02:12:00,
2013-01-07 19:22:00,26.0,-21.0,-100.00,WNW,299,1.0,8.0,11,0.00,,,0.00,0.000000,,2013-01-08 02:22:00,
2013-01-07 19:33:00,26.0,-21.0,-100.00,WNW,299,1.0,8.0,11,0.00,,,0.00,0.000000,,2013-01-08 02:33:00,
2013-01-07 19:42:00,26.0,-21.0,-100.00,WNW,299,1.0,8.0,11,0.00,,,0.00,0.000000,,2013-01-08 02:42:00,
2013-01-07 19:53:00,26.0,-21.0,-100.00,WNW,299,1.0,8.0,11,0.00,,,0.00,0.000000,,2013-01-08 02:53:00,
2013-01-07 20:12:00,26.0,-30.0,-100.00,NW,318,1.0,8.0,7,0.00,,,0.00,0.000000,,2013-01-08 03:12:00,
2013-01-07 20:22:00,26.0,-30.0,-100.00,NW,318,1.0,8.0,7,0.00,,,0.00,0.000000,,2013-01-08 03:22:00,
2013-01-07 20:32:00,26.0,-30.0,-100.00,NW,318,1.0,8.0,7,0.00,,,0.00,0.000000,,2013-01-08 03:32:00,
2013-01-07 20:43:00,26.0,-30.0,-100.00,NW,318,1.0,8.0,7,0.00,,,0.00,0.000000,,2013-01-08 03:43:00,
2013-01-07 20:52:00,26.0,-30.0,-100.00,NW,318,1.0,8.0,7,0.00,,,0.00,0.000000,,2013-01-08 03:52:00,
2013-01-07 21:22:00,26.0,-27.0,-100.00,SW,236,6.0,10.0,8,0.00,,,0.00,0.000000,,2013-01-08 04:22:00,
2013-01-07 21:32:00,26.0,-27.0,-100.00,SW,236,6.0,10.0,8,0.00,,,0.00,0.000000,,2013-01-08 04:32:00,
2013-01-07 21:42:00,26.0,-27.0,-100.00,SW,236,6.0,10.0,8,0.00,,,0.00,0.000000,,2013-01-08 04:42:00,
2013-01-07 21:52:00,26.0,-27.0,-100.00,SW,236,6.0,10.0,8,0.00,,,0.00,0.000000,,2013-01-08 04:52:00,
2013-01-07 22:12:00,24.0,-23.0,-100.00,SW,225,7.0,11.0,11,0.00,,,0.00,0.000000,,2013-01-08 05:12:00,
2013-01-07 22:22:00,24.0,-23.0,-100.00,SW,225,7.0,11.0,11,0.00,,,0.00,0.000000,,2013-01-08 05:22:00,
2013-01-07 22:33:00,24.0,-23.0,-100.00,SW,225,7.0,11.0,11,0.00,,,0.00,0.000000,,2013-01-08 05:33:00,
2013-01-07 22:42:00,24.0,-23.0,-100.00,SW,225,7.0,11.0,11,0.00,,,0.00,0.000000,,2013-01-08 05:42:00,
2013-01-07 22:53:00,24.0,-23.0,-100.00,SW,225,7.0,11.0,11,0.00,,,0.00,0.000000,,2013-01-08 05:53:00,
2013-01-07 23:12:00,23.0,-24.0,-100.00,NW,304,4.0,10.0,11,0.00,,,0.00,0.000000,,2013-01-08 06:12:00,
2013-01-07 23:22:00,23.0,-24.0,-100.00,NW,304,4.0,10.0,11,0.00,,,0.00,0.000000,,2013-01-08 06:22:00,
2013-01-07 23:33:00,23.0,-24.0,-100.00,NW,304,4.0,10.0,11,0.00,,,0.00,0.000000,,2013-01-08 06:33:00,
2013-01-07 23:42:00,23.0,-24.0,-100.00,NW,304,4.0,10.0,11,0.00,,,0.00,0.000000,,2013-01-08 06:42:00,
2013-01-07 23:52:00,23.0,-24.0,-100.00,NW,304,4.0,10.0,11,0.00,,,0.00,0.000000,,2013-01-08 06:52:00,